EWG7CG LEPA-EDDH

Flight info

Callsign EWG7CG
Flight time 2h 21m
Altitude 38000
Route MEROS DCT LAPIT DCT CHELY/N0416F320 DCT LUMAS DCT MAXIR DCT LUSOL DCT BODRU DCT OKTET DCT IRMAR/N0434F380 DCT KINES DCT VANAS DCT ESOKO DCT GODRA/N0435F390 DCT LOKTA DCT TEDGO DCT HAREM DCT LOHRE DCT ELNAT/N0433F380 P605 NOLGO NOLGO3P
Aircraft A20N/M-SDE2E3FGHIRWXY/LB1

Departure

Time 2026-04-26 17:57
Airport Palma de Mallorca Airport (LEPA)

Arrival

Time 2026-04-26 20:18
Airport Hamburg Helmut Schmidt Airport (EDDH)
Time Latitude Longitude Altitude Speed Heading
2026-04-26 17:13 39.54987 2.73323 38 ft 0 kts 185°
2026-04-26 17:41 39.54991 2.73323 38 ft 3 kts 184°
2026-04-26 17:41 39.55017 2.73322 38 ft 4 kts 158°
2026-04-26 17:42 39.55036 2.73302 35 ft 4 kts 102°
2026-04-26 17:42 39.55037 2.73290 34 ft 0 kts 96°
2026-04-26 17:49 39.55043 2.73304 35 ft 5 kts 62°
2026-04-26 17:49 39.55068 2.73359 38 ft 9 kts 58°
2026-04-26 17:50 39.55107 2.73442 38 ft 12 kts 59°
2026-04-26 17:50 39.55155 2.73544 38 ft 14 kts 58°
2026-04-26 17:50 39.55172 2.73581 38 ft 2 kts 58°
2026-04-26 17:50 39.55190 2.73606 38 ft 5 kts 33°
2026-04-26 17:51 39.55233 2.73590 37 ft 9 kts 329°
2026-04-26 17:51 39.55300 2.73539 38 ft 14 kts 328°
2026-04-26 17:51 39.55390 2.73468 38 ft 14 kts 330°
2026-04-26 17:51 39.55461 2.73482 37 ft 13 kts 62°
2026-04-26 17:52 39.55510 2.73573 38 ft 10 kts 23°
2026-04-26 17:52 39.55568 2.73541 38 ft 11 kts 328°
2026-04-26 17:52 39.55642 2.73501 38 ft 13 kts 11°
2026-04-26 17:52 39.55700 2.73597 37 ft 16 kts 58°
2026-04-26 17:53 39.55770 2.73744 37 ft 22 kts 58°
2026-04-26 17:53 39.55852 2.73916 38 ft 23 kts 59°
2026-04-26 17:53 39.55932 2.74086 38 ft 22 kts 58°
2026-04-26 17:54 39.56107 2.74313 35 ft 14 kts 27°
2026-04-26 17:54 39.56135 2.74333 35 ft 8 kts 28°
2026-04-26 17:54 39.56218 2.74328 37 ft 12 kts 316°
2026-04-26 17:54 39.56223 2.74261 38 ft 1 kts 243°
2026-04-26 17:55 39.56219 2.74251 38 ft 0 kts 239°
2026-04-26 17:56 39.56120 2.74040 37 ft 62 kts 239°
2026-04-26 17:56 39.55271 2.72260 120 ft 154 kts 237°
2026-04-26 17:57 39.54047 2.69797 1091 ft 170 kts 236°
2026-04-26 17:57 39.53389 2.68478 1606 ft 175 kts 236°
2026-04-26 17:57 39.52709 2.67130 2111 ft 186 kts 235°
2026-04-26 17:57 39.51958 2.65666 2489 ft 205 kts 236°
2026-04-26 17:58 39.49338 2.60582 4546 ft 239 kts 220°
2026-04-26 17:59 39.46238 2.58291 5723 ft 274 kts 203°
2026-04-26 17:59 39.44502 2.57224 6656 ft 278 kts 205°
2026-04-26 17:59 39.42716 2.56238 7562 ft 280 kts 191°
2026-04-26 17:59 39.40800 2.56210 8452 ft 281 kts 165°
2026-04-26 18:00 39.39052 2.57290 9352 ft 282 kts 139°
2026-04-26 18:00 39.37765 2.59211 10230 ft 285 kts 124°
2026-04-26 18:00 39.36616 2.61388 10716 ft 304 kts 124°
2026-04-26 18:00 39.35277 2.63640 11010 ft 328 kts 129°
2026-04-26 18:01 39.33720 2.65874 11592 ft 338 kts 133°
2026-04-26 18:01 39.32055 2.68042 12452 ft 341 kts 134°
2026-04-26 18:01 39.30344 2.70176 13318 ft 345 kts 135°
2026-04-26 18:01 39.28584 2.72337 14012 ft 352 kts 135°
2026-04-26 18:02 39.27033 2.74757 14817 ft 351 kts 118°
2026-04-26 18:02 39.26376 2.76629 15231 ft 354 kts 109°
2026-04-26 18:02 39.25394 2.80702 15901 ft 367 kts 106°
2026-04-26 18:02 39.24886 2.83997 16034 ft 380 kts 91°
2026-04-26 18:03 39.25226 2.87338 17063 ft 370 kts 73°
2026-04-26 18:03 39.26276 2.90333 18120 ft 368 kts 59°
2026-04-26 18:03 39.27680 2.93123 18711 ft 373 kts 58°
2026-04-26 18:03 39.29098 2.95945 19287 ft 377 kts 58°
2026-04-26 18:04 39.30493 2.98832 19875 ft 380 kts 59°
2026-04-26 18:04 39.31871 3.01781 20469 ft 383 kts 60°
2026-04-26 18:04 39.33479 3.04536 21051 ft 388 kts 45°
2026-04-26 18:05 39.38084 3.08222 22170 ft 398 kts 27°
2026-04-26 18:05 39.40585 3.09798 22733 ft 402 kts 27°
2026-04-26 18:05 39.43113 3.11388 23292 ft 405 kts 27°
2026-04-26 18:05 39.45659 3.13009 23814 ft 409 kts 27°
2026-04-26 18:06 39.48221 3.14660 24290 ft 412 kts 27°
2026-04-26 18:06 39.50792 3.16327 24763 ft 415 kts 27°
2026-04-26 18:06 39.53384 3.18015 25215 ft 418 kts 27°
2026-04-26 18:06 39.55990 3.19715 25713 ft 419 kts 27°
2026-04-26 18:07 39.58576 3.21401 26137 ft 422 kts 27°
2026-04-26 18:07 39.61209 3.23120 26565 ft 425 kts 27°
2026-04-26 18:07 39.63860 3.24853 26997 ft 428 kts 27°
2026-04-26 18:07 39.65660 3.26029 27279 ft 430 kts 27°
2026-04-26 18:08 39.69215 3.28355 27818 ft 433 kts 27°
2026-04-26 18:08 39.71917 3.30126 28207 ft 436 kts 27°
2026-04-26 18:08 39.74635 3.31908 28586 ft 438 kts 27°
2026-04-26 18:08 39.77370 3.33702 29002 ft 440 kts 27°
2026-04-26 18:09 39.80105 3.35499 29382 ft 442 kts 27°
2026-04-26 18:09 39.82822 3.37285 29712 ft 444 kts 27°
2026-04-26 18:09 39.85597 3.39111 30068 ft 446 kts 27°
2026-04-26 18:09 39.88376 3.40941 30378 ft 449 kts 27°
2026-04-26 18:10 39.91165 3.42779 30691 ft 451 kts 27°
2026-04-26 18:10 39.93969 3.44629 30988 ft 453 kts 27°
2026-04-26 18:10 39.96788 3.46490 31312 ft 454 kts 27°
2026-04-26 18:10 39.99606 3.48352 31714 ft 453 kts 27°
2026-04-26 18:11 40.02409 3.50207 32177 ft 451 kts 27°
2026-04-26 18:11 40.05209 3.52061 32539 ft 451 kts 27°
2026-04-26 18:11 40.08004 3.53913 32938 ft 450 kts 27°
2026-04-26 18:11 40.10799 3.55767 33258 ft 451 kts 27°
2026-04-26 18:12 40.13600 3.57628 33623 ft 450 kts 27°
2026-04-26 18:12 40.16390 3.59482 33946 ft 450 kts 27°
2026-04-26 18:12 40.19138 3.61310 34270 ft 449 kts 27°
2026-04-26 18:12 40.21926 3.63166 34557 ft 449 kts 27°
2026-04-26 18:13 40.24706 3.65020 34847 ft 448 kts 27°
2026-04-26 18:13 40.27486 3.66874 35108 ft 448 kts 27°
2026-04-26 18:13 40.30261 3.68727 35379 ft 448 kts 27°
2026-04-26 18:13 40.32136 3.69980 35552 ft 447 kts 27°
2026-04-26 18:14 40.35808 3.72437 35882 ft 447 kts 27°
2026-04-26 18:14 40.38581 3.74294 36122 ft 447 kts 27°
2026-04-26 18:14 40.41348 3.76148 36360 ft 447 kts 27°
2026-04-26 18:14 40.44118 3.78007 36583 ft 447 kts 26°
2026-04-26 18:15 40.46884 3.79864 36803 ft 446 kts 26°
2026-04-26 18:15 40.49647 3.81721 37037 ft 446 kts 26°
2026-04-26 18:15 40.52405 3.83576 37250 ft 446 kts 26°
2026-04-26 18:15 40.55169 3.85438 37460 ft 445 kts 26°
2026-04-26 18:16 40.57928 3.87297 37656 ft 445 kts 26°
2026-04-26 18:16 40.63408 3.90994 38044 ft 444 kts 26°
2026-04-26 18:16 40.66165 3.92857 38135 ft 445 kts 26°
2026-04-26 18:17 40.71657 3.96574 38134 ft 443 kts 26°
2026-04-26 18:17 40.77144 4.00293 38133 ft 443 kts 26°
2026-04-26 18:18 40.82627 4.04018 38139 ft 443 kts 26°
2026-04-26 18:18 40.88115 4.07753 38140 ft 444 kts 26°
2026-04-26 18:19 40.93612 4.11501 38141 ft 445 kts 26°
2026-04-26 18:19 40.99122 4.15264 38147 ft 445 kts 26°
2026-04-26 18:20 41.04605 4.19016 38133 ft 448 kts 26°
2026-04-26 18:20 41.08340 4.21576 38130 ft 453 kts 26°
2026-04-26 18:21 41.15873 4.26749 38132 ft 462 kts 26°
2026-04-26 18:21 41.21578 4.30676 38132 ft 461 kts 26°
2026-04-26 18:22 41.26316 4.33944 38132 ft 461 kts 26°
2026-04-26 18:22 41.32017 4.37883 38128 ft 462 kts 26°
2026-04-26 18:23 41.37717 4.41829 38130 ft 461 kts 26°
2026-04-26 18:23 41.43423 4.45787 38129 ft 461 kts 26°
2026-04-26 18:24 41.49082 4.49720 38128 ft 462 kts 26°
2026-04-26 18:24 41.54783 4.53690 38128 ft 462 kts 26°
2026-04-26 18:25 41.60490 4.57672 38130 ft 462 kts 26°
2026-04-26 18:25 41.66187 4.61655 38127 ft 462 kts 26°
2026-04-26 18:26 41.71850 4.65619 38125 ft 463 kts 26°
2026-04-26 18:26 41.77421 4.69979 38123 ft 463 kts 29°
2026-04-26 18:27 41.82955 4.74405 38125 ft 463 kts 29°
2026-04-26 18:27 41.88486 4.78837 38124 ft 463 kts 29°
2026-04-26 18:28 41.94016 4.83294 38126 ft 463 kts 29°
2026-04-26 18:28 41.99545 4.87760 38130 ft 463 kts 29°
2026-04-26 18:29 42.05041 4.92210 38130 ft 463 kts 29°
2026-04-26 18:29 42.10573 4.96699 38130 ft 464 kts 29°
2026-04-26 18:30 42.16109 5.01199 38128 ft 464 kts 29°
2026-04-26 18:30 42.21634 5.05700 38128 ft 464 kts 29°
2026-04-26 18:31 42.27125 5.10182 38131 ft 464 kts 29°
2026-04-26 18:31 42.32659 5.14710 38129 ft 464 kts 29°
2026-04-26 18:32 42.38184 5.19238 38126 ft 464 kts 29°
2026-04-26 18:32 42.43707 5.23776 38123 ft 464 kts 29°
2026-04-26 18:33 42.49202 5.28299 38126 ft 464 kts 29°
2026-04-26 18:33 42.54724 5.32854 38129 ft 464 kts 29°
2026-04-26 18:34 42.60256 5.37426 38126 ft 466 kts 29°
2026-04-26 18:34 42.65796 5.42016 38130 ft 466 kts 29°
2026-04-26 18:35 42.71331 5.46610 38126 ft 466 kts 29°
2026-04-26 18:35 42.76867 5.51216 38129 ft 466 kts 29°
2026-04-26 18:36 42.82413 5.55837 38129 ft 470 kts 29°
2026-04-26 18:36 42.88012 5.60515 38133 ft 472 kts 29°
2026-04-26 18:37 42.93587 5.65184 38129 ft 474 kts 29°
2026-04-26 18:37 42.99206 5.69898 38130 ft 473 kts 29°
2026-04-26 18:38 43.04821 5.74619 38129 ft 475 kts 29°
2026-04-26 18:38 43.10451 5.79363 38130 ft 474 kts 29°
2026-04-26 18:39 43.16070 5.84110 38129 ft 474 kts 29°
2026-04-26 18:39 43.21691 5.88866 38128 ft 475 kts 29°
2026-04-26 18:40 43.27309 5.93632 38129 ft 475 kts 29°
2026-04-26 18:40 43.32883 5.98370 38130 ft 474 kts 30°
2026-04-26 18:41 43.38705 6.02521 38128 ft 470 kts 17°
2026-04-26 18:41 43.45022 6.04568 38128 ft 465 kts
2026-04-26 18:42 43.51467 6.05229 38127 ft 464 kts
2026-04-26 18:42 43.57912 6.05893 38125 ft 464 kts
2026-04-26 18:43 43.64352 6.06548 38121 ft 464 kts
2026-04-26 18:43 43.70796 6.07200 38120 ft 464 kts
2026-04-26 18:44 43.77169 6.08749 38122 ft 468 kts 14°
2026-04-26 18:44 43.83262 6.12032 38124 ft 472 kts 25°
2026-04-26 18:45 43.89149 6.16039 38125 ft 470 kts 24°
2026-04-26 18:45 43.94994 6.20002 38123 ft 471 kts 24°
2026-04-26 18:46 44.00883 6.24025 38132 ft 471 kts 24°
2026-04-26 18:46 44.06765 6.28060 38142 ft 470 kts 24°
2026-04-26 18:47 44.12589 6.32063 38137 ft 470 kts 24°
2026-04-26 18:47 44.18450 6.36100 38137 ft 470 kts 24°
2026-04-26 18:48 44.24308 6.40145 38139 ft 469 kts 24°
2026-04-26 18:48 44.30150 6.44186 38138 ft 468 kts 24°
2026-04-26 18:49 44.35987 6.48232 38139 ft 469 kts 25°
2026-04-26 18:49 44.41855 6.52309 38140 ft 471 kts 25°
2026-04-26 18:50 44.47695 6.56378 38150 ft 468 kts 24°
2026-04-26 18:50 44.53532 6.60452 38149 ft 469 kts 25°
2026-04-26 18:51 44.59370 6.64536 38156 ft 468 kts 25°
2026-04-26 18:51 44.65201 6.68625 38154 ft 468 kts 25°
2026-04-26 18:52 44.70999 6.72700 38158 ft 469 kts 25°
2026-04-26 18:52 44.76899 6.76602 38161 ft 467 kts 17°
2026-04-26 18:53 44.83198 6.78533 38158 ft 459 kts
2026-04-26 18:53 44.89537 6.78401 38158 ft 458 kts 355°
2026-04-26 18:54 44.95913 6.77995 38160 ft 458 kts 355°
2026-04-26 18:54 45.02280 6.77584 38169 ft 457 kts 355°
2026-04-26 18:55 45.08620 6.77167 38170 ft 455 kts 355°
2026-04-26 18:55 45.14968 6.76743 38176 ft 456 kts 355°
2026-04-26 18:56 45.21312 6.76320 38171 ft 454 kts 355°
2026-04-26 18:56 45.27591 6.75901 38180 ft 455 kts 355°
2026-04-26 18:57 45.31819 6.75620 38180 ft 454 kts 355°
2026-04-26 18:57 45.40239 6.75081 38170 ft 454 kts 358°
2026-04-26 18:58 45.46514 6.76361 38175 ft 459 kts 15°
2026-04-26 18:58 45.52342 6.80185 38191 ft 464 kts 28°
2026-04-26 18:59 45.57928 6.84814 38192 ft 463 kts 27°
2026-04-26 18:59 45.63478 6.89413 38182 ft 463 kts 27°
2026-04-26 19:00 45.69046 6.94048 38188 ft 462 kts 27°
2026-04-26 19:00 45.74614 6.98697 38158 ft 463 kts 28°
2026-04-26 19:01 45.80160 7.03342 38143 ft 460 kts 28°
2026-04-26 19:01 45.85693 7.07984 38145 ft 461 kts 28°
2026-04-26 19:02 45.91199 7.12619 38154 ft 462 kts 28°
2026-04-26 19:02 45.95826 7.16527 38162 ft 464 kts 28°
2026-04-26 19:03 46.02326 7.22028 38153 ft 463 kts 28°
2026-04-26 19:03 46.07894 7.26751 38141 ft 463 kts 28°
2026-04-26 19:04 46.13416 7.31448 38128 ft 464 kts 28°
2026-04-26 19:04 46.18949 7.36164 38130 ft 461 kts 28°
2026-04-26 19:05 46.27251 7.43260 38132 ft 462 kts 28°
2026-04-26 19:06 46.32773 7.47996 38143 ft 461 kts 28°
2026-04-26 19:06 46.38277 7.52724 38174 ft 460 kts 28°
2026-04-26 19:07 46.43749 7.57435 38160 ft 459 kts 28°
2026-04-26 19:07 46.49246 7.62187 38160 ft 459 kts 28°
2026-04-26 19:08 46.53822 7.66147 38159 ft 460 kts 28°
2026-04-26 19:08 46.60217 7.71697 38170 ft 460 kts 28°
2026-04-26 19:09 46.64745 7.75780 38172 ft 460 kts 29°
2026-04-26 19:09 46.70166 7.80732 38180 ft 460 kts 29°
2026-04-26 19:10 46.75600 7.85684 38176 ft 459 kts 29°
2026-04-26 19:10 46.81020 7.90622 38184 ft 460 kts 29°
2026-04-26 19:11 46.86446 7.95579 38184 ft 459 kts 29°
2026-04-26 19:11 46.91860 8.00535 38174 ft 459 kts 29°
2026-04-26 19:12 46.97277 8.05508 38179 ft 459 kts 29°
2026-04-26 19:12 47.02653 8.10456 38180 ft 459 kts 29°
2026-04-26 19:13 47.08063 8.15446 38182 ft 459 kts 29°
2026-04-26 19:13 47.13458 8.20435 38167 ft 458 kts 30°
2026-04-26 19:14 47.18855 8.25436 38173 ft 458 kts 30°
2026-04-26 19:14 47.24259 8.30457 38173 ft 461 kts 30°
2026-04-26 19:15 47.29697 8.35521 38183 ft 461 kts 30°
2026-04-26 19:15 47.35087 8.40555 38186 ft 461 kts 30°
2026-04-26 19:16 47.40510 8.45630 38186 ft 461 kts 30°
2026-04-26 19:16 47.45929 8.50715 38185 ft 461 kts 30°
2026-04-26 19:17 47.51347 8.55811 38184 ft 461 kts 30°
2026-04-26 19:17 47.56732 8.60890 38185 ft 461 kts 30°
2026-04-26 19:18 47.62150 8.66011 38191 ft 461 kts 30°
2026-04-26 19:18 47.67564 8.71142 38198 ft 461 kts 30°
2026-04-26 19:19 47.72977 8.76285 38210 ft 460 kts 30°
2026-04-26 19:19 47.78342 8.81394 38212 ft 460 kts 30°
2026-04-26 19:20 47.83735 8.86543 38210 ft 460 kts 30°
2026-04-26 19:20 47.89243 8.91335 38234 ft 457 kts 18°
2026-04-26 19:20 47.92288 8.92624 38216 ft 454 kts
2026-04-26 19:21 47.95405 8.93395 38205 ft 455 kts
2026-04-26 19:21 48.01653 8.94939 38204 ft 454 kts
2026-04-26 19:22 48.07850 8.96492 38220 ft 452 kts
2026-04-26 19:22 48.13999 8.98043 38215 ft 450 kts
2026-04-26 19:23 48.20173 8.99603 38366 ft 449 kts
2026-04-26 19:23 48.23221 9.00377 38582 ft 437 kts
2026-04-26 19:23 48.26208 9.01136 38810 ft 435 kts
2026-04-26 19:23 48.29194 9.01893 39004 ft 434 kts
2026-04-26 19:24 48.32169 9.02648 39166 ft 434 kts
2026-04-26 19:24 48.41213 9.04948 39216 ft 443 kts
2026-04-26 19:25 48.46289 9.06244 39217 ft 447 kts
2026-04-26 19:25 48.53503 9.08092 39214 ft 450 kts
2026-04-26 19:26 48.59649 9.09672 39211 ft 450 kts
2026-04-26 19:26 48.65819 9.11260 39213 ft 450 kts
2026-04-26 19:27 48.71994 9.12854 39221 ft 450 kts
2026-04-26 19:27 48.78129 9.14441 39209 ft 449 kts
2026-04-26 19:28 48.84309 9.16043 39210 ft 449 kts
2026-04-26 19:28 48.90471 9.17645 39213 ft 449 kts
2026-04-26 19:29 48.96629 9.19251 39215 ft 448 kts
2026-04-26 19:29 49.02646 9.20823 39225 ft 448 kts
2026-04-26 19:30 49.08794 9.22432 39232 ft 448 kts
2026-04-26 19:30 49.13912 9.23776 39230 ft 448 kts
2026-04-26 19:31 49.21067 9.25660 39235 ft 448 kts
2026-04-26 19:31 49.27218 9.27283 39237 ft 448 kts
2026-04-26 19:32 49.33361 9.28908 39239 ft 448 kts
2026-04-26 19:32 49.39511 9.30540 39237 ft 448 kts
2026-04-26 19:33 49.45660 9.32175 39241 ft 448 kts
2026-04-26 19:33 49.51804 9.33813 39245 ft 448 kts
2026-04-26 19:34 49.57944 9.35454 39244 ft 446 kts
2026-04-26 19:34 49.60954 9.36263 39247 ft 432 kts
2026-04-26 19:34 49.63837 9.37040 39245 ft 420 kts
2026-04-26 19:35 49.69609 9.38587 39250 ft 425 kts
2026-04-26 19:35 49.75468 9.40160 39248 ft 426 kts
2026-04-26 19:36 49.80326 9.41471 39250 ft 425 kts
2026-04-26 19:36 49.87136 9.43314 39252 ft 425 kts
2026-04-26 19:37 49.92962 9.44895 39250 ft 425 kts
2026-04-26 19:37 49.98748 9.46468 39257 ft 425 kts
2026-04-26 19:38 50.04575 9.48055 39265 ft 425 kts
2026-04-26 19:38 50.10398 9.49283 39258 ft 421 kts
2026-04-26 19:39 50.16234 9.50309 39263 ft 422 kts
2026-04-26 19:39 50.22067 9.51343 39266 ft 422 kts
2026-04-26 19:40 50.27901 9.52377 39267 ft 421 kts
2026-04-26 19:40 50.33709 9.53408 39265 ft 419 kts
2026-04-26 19:41 50.39497 9.54437 39256 ft 418 kts
2026-04-26 19:41 50.43317 9.55116 39253 ft 417 kts
2026-04-26 19:42 50.51096 9.56505 39272 ft 420 kts
2026-04-26 19:42 50.56851 9.57537 39275 ft 419 kts
2026-04-26 19:43 50.62662 9.58581 39277 ft 419 kts
2026-04-26 19:43 50.68462 9.59625 39278 ft 420 kts
2026-04-26 19:44 50.74273 9.60674 39277 ft 419 kts
2026-04-26 19:44 50.80075 9.61723 39280 ft 420 kts
2026-04-26 19:45 50.85847 9.62770 39282 ft 419 kts
2026-04-26 19:45 50.91648 9.63825 39275 ft 419 kts
2026-04-26 19:46 50.97448 9.64882 39278 ft 419 kts
2026-04-26 19:46 51.03240 9.65941 39272 ft 419 kts
2026-04-26 19:47 51.07078 9.66643 39271 ft 419 kts
2026-04-26 19:47 51.14834 9.68068 39279 ft 419 kts
2026-04-26 19:48 51.20607 9.69130 39284 ft 419 kts
2026-04-26 19:48 51.26413 9.70097 39285 ft 419 kts
2026-04-26 19:49 51.32211 9.71012 39296 ft 419 kts
2026-04-26 19:49 51.38014 9.71950 39291 ft 419 kts
2026-04-26 19:50 51.43805 9.73086 39296 ft 419 kts
2026-04-26 19:50 51.49609 9.74276 39294 ft 419 kts
2026-04-26 19:51 51.55362 9.75436 39294 ft 419 kts
2026-04-26 19:51 51.61152 9.76593 39293 ft 419 kts
2026-04-26 19:52 51.66935 9.77751 39294 ft 419 kts
2026-04-26 19:52 51.71748 9.78718 39291 ft 418 kts
2026-04-26 19:53 51.77534 9.79884 39293 ft 418 kts
2026-04-26 19:53 51.83305 9.81049 39293 ft 418 kts
2026-04-26 19:54 51.89071 9.82217 39300 ft 417 kts
2026-04-26 19:54 51.94804 9.83381 39297 ft 417 kts
2026-04-26 19:55 52.00578 9.84556 39294 ft 417 kts
2026-04-26 19:55 52.06330 9.85730 39292 ft 417 kts
2026-04-26 19:56 52.12091 9.86909 39308 ft 417 kts
2026-04-26 19:56 52.17837 9.88089 39113 ft 413 kts
2026-04-26 19:57 52.20682 9.88708 38632 ft 412 kts
2026-04-26 19:57 52.23483 9.89490 37938 ft 413 kts
2026-04-26 19:57 52.26311 9.90350 37171 ft 414 kts
2026-04-26 19:57 52.29159 9.91217 36411 ft 416 kts
2026-04-26 19:58 52.32011 9.92069 35675 ft 417 kts
2026-04-26 19:58 52.34878 9.92912 34968 ft 418 kts
2026-04-26 19:58 52.37748 9.93748 34208 ft 420 kts
2026-04-26 19:58 52.40644 9.94589 33324 ft 422 kts
2026-04-26 19:59 52.43548 9.95430 32404 ft 426 kts
2026-04-26 19:59 52.46477 9.96279 31482 ft 429 kts
2026-04-26 19:59 52.49437 9.97139 30577 ft 433 kts
2026-04-26 19:59 52.52363 9.97992 29802 ft 431 kts
2026-04-26 20:00 52.55303 9.98855 29174 ft 426 kts
2026-04-26 20:00 52.58208 9.99708 28517 ft 421 kts
2026-04-26 20:00 52.61087 10.00551 27819 ft 419 kts
2026-04-26 20:00 52.63957 10.01392 27194 ft 415 kts
2026-04-26 20:01 52.66785 10.02222 26582 ft 411 kts
2026-04-26 20:01 52.69549 10.03033 25983 ft 407 kts
2026-04-26 20:01 52.72331 10.03850 25384 ft 404 kts
2026-04-26 20:01 52.75085 10.04660 24801 ft 400 kts
2026-04-26 20:02 52.77817 10.05465 24228 ft 397 kts
2026-04-26 20:02 52.80529 10.06264 23625 ft 394 kts
2026-04-26 20:02 52.83230 10.07062 23012 ft 390 kts
2026-04-26 20:02 52.84983 10.07582 22737 ft 384 kts
2026-04-26 20:03 52.88499 10.08623 21791 ft 382 kts
2026-04-26 20:03 52.91108 10.09395 21204 ft 379 kts
2026-04-26 20:03 52.93691 10.10161 20625 ft 376 kts
2026-04-26 20:03 52.96256 10.10921 20055 ft 372 kts
2026-04-26 20:04 52.98762 10.11665 19503 ft 369 kts
2026-04-26 20:04 53.01280 10.12416 18955 ft 366 kts
2026-04-26 20:04 53.03777 10.13162 18388 ft 363 kts
2026-04-26 20:04 53.06251 10.13902 17804 ft 359 kts
2026-04-26 20:05 53.08699 10.14634 17234 ft 356 kts
2026-04-26 20:05 53.11125 10.15361 16676 ft 352 kts
2026-04-26 20:05 53.13526 10.16080 16123 ft 349 kts
2026-04-26 20:05 53.15904 10.16793 15593 ft 346 kts
2026-04-26 20:06 53.18262 10.17501 15050 ft 343 kts
2026-04-26 20:06 53.20601 10.18205 14541 ft 339 kts
2026-04-26 20:06 53.22921 10.18903 14023 ft 337 kts
2026-04-26 20:06 53.25213 10.19594 13462 ft 334 kts
2026-04-26 20:07 53.27488 10.20281 12910 ft 331 kts
2026-04-26 20:07 53.29746 10.20964 12367 ft 328 kts
2026-04-26 20:07 53.31982 10.21641 11860 ft 325 kts
2026-04-26 20:07 53.34174 10.22305 11345 ft 322 kts
2026-04-26 20:08 53.36375 10.22972 10825 ft 320 kts
2026-04-26 20:08 53.38556 10.23634 10314 ft 317 kts
2026-04-26 20:08 53.40719 10.24291 9761 ft 315 kts
2026-04-26 20:08 53.42875 10.24946 9194 ft 314 kts
2026-04-26 20:09 53.45017 10.25599 8640 ft 312 kts
2026-04-26 20:09 53.47147 10.26248 8154 ft 309 kts
2026-04-26 20:09 53.49213 10.26881 8006 ft 294 kts
2026-04-26 20:09 53.51202 10.27491 7685 ft 288 kts
2026-04-26 20:10 53.53173 10.28093 7220 ft 287 kts
2026-04-26 20:10 53.55131 10.28691 6771 ft 286 kts
2026-04-26 20:10 53.57091 10.29291 6251 ft 286 kts
2026-04-26 20:10 53.59053 10.29898 5744 ft 287 kts
2026-04-26 20:11 53.61018 10.30503 5231 ft 287 kts
2026-04-26 20:11 53.62983 10.31103 4742 ft 287 kts
2026-04-26 20:11 53.64922 10.31689 4271 ft 286 kts
2026-04-26 20:12 53.68831 10.32857 3370 ft 284 kts
2026-04-26 20:12 53.70741 10.33427 3191 ft 273 kts
2026-04-26 20:12 53.72567 10.33975 3066 ft 260 kts
2026-04-26 20:12 53.74294 10.34451 2967 ft 240 kts 360°
2026-04-26 20:13 53.75827 10.33883 2982 ft 227 kts 327°
2026-04-26 20:13 53.76917 10.32035 2969 ft 220 kts 295°
2026-04-26 20:13 53.77210 10.29555 2985 ft 217 kts 263°
2026-04-26 20:13 53.76744 10.27149 2984 ft 218 kts 241°
2026-04-26 20:14 53.75898 10.25020 2989 ft 218 kts 233°
2026-04-26 20:14 53.74938 10.23043 2987 ft 218 kts 231°
2026-04-26 20:14 53.73979 10.21087 2991 ft 218 kts 231°
2026-04-26 20:14 53.73016 10.19125 2982 ft 214 kts 231°
2026-04-26 20:15 53.72077 10.17209 2768 ft 211 kts 231°
2026-04-26 20:15 53.71135 10.15293 2463 ft 212 kts 231°
2026-04-26 20:15 53.70198 10.13384 2159 ft 208 kts 232°
2026-04-26 20:15 53.69291 10.11538 1872 ft 200 kts 232°
2026-04-26 20:16 53.68417 10.09760 1599 ft 194 kts 232°
2026-04-26 20:16 53.67588 10.08076 1402 ft 181 kts 232°
2026-04-26 20:16 53.66748 10.06346 1012 ft 191 kts 233°
2026-04-26 20:16 53.65955 10.04744 845 ft 165 kts 232°
2026-04-26 20:17 53.65244 10.03336 620 ft 154 kts 232°
2026-04-26 20:17 53.64589 10.01981 392 ft 145 kts 233°
2026-04-26 20:17 53.63964 10.00706 228 ft 138 kts 232°
2026-04-26 20:17 53.63559 9.99882 98 ft 133 kts 232°
2026-04-26 20:18 53.62871 9.98478 44 ft 87 kts 230°
2026-04-26 20:18 53.62601 9.97938 41 ft 37 kts 230°
2026-04-26 20:18 53.62479 9.97788 40 ft 20 kts 174°
2026-04-26 20:18 53.62441 9.97837 43 ft 3 kts 125°
2026-04-26 20:19 53.62432 9.97865 44 ft 3 kts 113°
2026-04-26 20:19 53.62430 9.97899 44 ft 3 kts 92°
2026-04-26 20:19 53.62433 9.97945 46 ft 4 kts 83°
2026-04-26 20:19 53.62443 9.98014 46 ft 8 kts 71°
2026-04-26 20:20 53.62475 9.98116 45 ft 12 kts 52°
2026-04-26 20:20 53.62534 9.98237 46 ft 15 kts 50°
2026-04-26 20:20 53.62608 9.98384 46 ft 16 kts 51°
2026-04-26 20:20 53.62677 9.98523 46 ft 14 kts 49°
2026-04-26 20:21 53.62745 9.98662 46 ft 15 kts 51°
2026-04-26 20:21 53.62792 9.98759 46 ft 9 kts 50°
2026-04-26 20:21 53.62839 9.98853 46 ft 12 kts 51°
2026-04-26 20:21 53.62901 9.98980 46 ft 16 kts 51°
2026-04-26 20:22 53.62975 9.99131 46 ft 18 kts 50°
2026-04-26 20:22 53.63056 9.99300 46 ft 20 kts 52°
2026-04-26 20:22 53.63144 9.99501 46 ft 23 kts 53°
2026-04-26 20:22 53.63240 9.99697 48 ft 21 kts 47°
2026-04-26 20:23 53.63338 9.99883 48 ft 17 kts 49°
2026-04-26 20:23 53.63407 10.00020 48 ft 16 kts 50°
2026-04-26 20:23 53.63452 10.00127 48 ft 5 kts 84°
2026-04-26 20:23 53.63448 10.00213 48 ft 9 kts 96°
2026-04-26 20:24 53.63449 10.00279 48 ft 6 kts 86°
2026-04-26 20:24 53.63450 10.00309 48 ft 3 kts 86°
2026-04-26 20:24 53.63451 10.00315 48 ft 0 kts 86°